KLM1206 ENGM-EHAM

Flight info

Callsign KLM1206
Flight time N/A
Altitude 40000
Route VIPPA DCT KUGAL DCT EEL DCT BLUFA
Aircraft B737/M-SDE2E3FGHIRWXY/LB1

Departure

Time 2026-05-06 16:52
Airport Oslo-Gardermoen International Airport (ENGM)

Arrival

Time N/A
Airport Amsterdam Airport Schiphol (EHAM)
Time Latitude Longitude Altitude Speed Heading
2026-05-06 16:18 60.19345 11.10269 681 ft 0 kts 16°
2026-05-06 16:43 60.19345 11.10268 684 ft 2 kts 16°
2026-05-06 16:43 60.19322 11.10255 676 ft 4 kts 360°
2026-05-06 16:43 60.19302 11.10266 679 ft 4 kts 333°
2026-05-06 16:44 60.19278 11.10291 681 ft 4 kts 333°
2026-05-06 16:44 60.19254 11.10316 678 ft 4 kts 327°
2026-05-06 16:44 60.19235 11.10350 677 ft 4 kts 293°
2026-05-06 16:44 60.19233 11.10360 684 ft 1 kts 286°
2026-05-06 16:47 60.19239 11.10342 678 ft 6 kts 307°
2026-05-06 16:48 60.19272 11.10377 679 ft 8 kts 87°
2026-05-06 16:48 60.19251 11.10527 684 ft 14 kts 106°
2026-05-06 16:48 60.19219 11.10744 681 ft 18 kts 106°
2026-05-06 16:48 60.19183 11.11001 683 ft 19 kts 106°
2026-05-06 16:49 60.19193 11.11152 684 ft 11 kts 30°
2026-05-06 16:49 60.19272 11.11195 684 ft 15 kts 16°
2026-05-06 16:49 60.19389 11.11263 683 ft 19 kts 16°
2026-05-06 16:49 60.19538 11.11349 681 ft 25 kts 16°
2026-05-06 16:50 60.19700 11.11443 679 ft 23 kts 16°
2026-05-06 16:50 60.19852 11.11531 684 ft 22 kts 16°
2026-05-06 16:50 60.20000 11.11615 685 ft 22 kts 15°
2026-05-06 16:50 60.20090 11.11728 685 ft 15 kts 90°
2026-05-06 16:51 60.20064 11.11916 682 ft 4 kts 107°
2026-05-06 16:51 60.20056 11.11974 687 ft 7 kts 107°
2026-05-06 16:51 60.20030 11.12125 687 ft 11 kts 109°
2026-05-06 16:51 60.19980 11.12169 682 ft 9 kts 197°
2026-05-06 16:52 60.19873 11.12106 686 ft 37 kts 196°
2026-05-06 16:52 60.19352 11.11805 682 ft 115 kts 196°
2026-05-06 16:52 60.18374 11.11244 694 ft 174 kts 197°
2026-05-06 16:52 60.17149 11.10528 1319 ft 187 kts 198°
2026-05-06 16:53 60.15894 11.09810 2304 ft 189 kts 198°
2026-05-06 16:53 60.14630 11.09100 3245 ft 191 kts 199°
2026-05-06 16:53 60.13271 11.08337 3586 ft 217 kts 197°
2026-05-06 16:53 60.11702 11.07840 4007 ft 236 kts 187°
2026-05-06 16:54 60.10047 11.07518 4844 ft 239 kts 188°
2026-05-06 16:54 60.08377 11.07183 5700 ft 249 kts 188°
2026-05-06 16:54 60.06595 11.06807 6388 ft 263 kts 188°
2026-05-06 16:54 60.04783 11.06139 7314 ft 266 kts 198°
2026-05-06 16:55 60.03027 11.04936 8393 ft 267 kts 202°
2026-05-06 16:55 60.01280 11.03615 9476 ft 271 kts 202°
2026-05-06 16:55 59.99507 11.02264 10461 ft 274 kts 203°
2026-05-06 16:55 59.97729 11.00922 11521 ft 275 kts 204°
2026-05-06 16:56 59.95934 10.99582 12552 ft 276 kts 205°
2026-05-06 16:56 59.94122 10.98244 13568 ft 279 kts 205°
2026-05-06 16:56 59.92287 10.96898 14496 ft 282 kts 206°
2026-05-06 16:56 59.90433 10.95548 15444 ft 285 kts 206°
2026-05-06 16:57 59.88567 10.94196 16429 ft 286 kts 206°
2026-05-06 16:57 59.86686 10.92839 17385 ft 289 kts 206°
2026-05-06 16:57 59.84779 10.91466 18315 ft 293 kts 206°
2026-05-06 16:57 59.82851 10.90083 19156 ft 295 kts 206°
2026-05-06 16:58 59.80914 10.88693 20033 ft 297 kts 206°
2026-05-06 16:58 59.78962 10.87296 20880 ft 299 kts 207°
2026-05-06 16:58 59.76999 10.85893 21749 ft 301 kts 207°
2026-05-06 16:58 59.75014 10.84475 22599 ft 304 kts 207°
2026-05-06 16:59 59.73013 10.83048 23452 ft 307 kts 207°
2026-05-06 16:59 59.70989 10.81605 24036 ft 313 kts 207°
2026-05-06 16:59 59.68928 10.80140 24734 ft 315 kts 207°
2026-05-06 16:59 59.66867 10.78680 25526 ft 314 kts 207°
2026-05-06 17:00 59.64807 10.77223 26272 ft 316 kts 207°
2026-05-06 17:00 59.62743 10.75763 27106 ft 313 kts 207°
2026-05-06 17:00 59.60715 10.74333 28102 ft 306 kts 207°
2026-05-06 17:00 59.58730 10.72934 29059 ft 301 kts 207°
2026-05-06 17:01 59.56795 10.71570 29901 ft 299 kts 207°
2026-05-06 17:01 59.54771 10.70135 30118 ft 313 kts 207°
2026-05-06 17:01 59.52606 10.68914 30226 ft 334 kts 200°
2026-05-06 17:01 59.50268 10.68007 30323 ft 351 kts 198°
2026-05-06 17:02 59.47805 10.67179 30411 ft 366 kts 197°
2026-05-06 17:02 59.45250 10.66342 30489 ft 378 kts 197°
2026-05-06 17:02 59.42616 10.65466 30515 ft 390 kts 197°
2026-05-06 17:03 59.37146 10.63590 30859 ft 405 kts 197°
2026-05-06 17:03 59.34367 10.62622 31236 ft 406 kts 197°
2026-05-06 17:03 59.31586 10.61647 31598 ft 407 kts 197°
2026-05-06 17:03 59.28793 10.60663 32139 ft 407 kts 197°
2026-05-06 17:04 59.26045 10.59694 32581 ft 407 kts 197°
2026-05-06 17:04 59.23260 10.58711 32990 ft 407 kts 197°
2026-05-06 17:04 59.20473 10.57727 33360 ft 407 kts 197°
2026-05-06 17:04 59.17684 10.56744 33739 ft 407 kts 197°
2026-05-06 17:05 59.14899 10.55765 34127 ft 406 kts 197°
2026-05-06 17:05 59.12123 10.54790 34412 ft 407 kts 197°
2026-05-06 17:05 59.09323 10.53807 34576 ft 410 kts 197°
2026-05-06 17:05 59.06606 10.52304 34752 ft 403 kts 210°
2026-05-06 17:06 59.04229 10.49523 35005 ft 397 kts 220°
2026-05-06 17:06 59.02219 10.45890 35214 ft 395 kts 232°
2026-05-06 17:06 59.00632 10.41531 35421 ft 396 kts 237°
2026-05-06 17:06 58.99138 10.37025 35653 ft 398 kts 238°
2026-05-06 17:07 58.97622 10.32510 35868 ft 400 kts 237°
2026-05-06 17:07 58.96076 10.28014 36087 ft 402 kts 235°
2026-05-06 17:07 58.94177 10.24019 36278 ft 407 kts 222°
2026-05-06 17:07 58.91806 10.20967 36510 ft 414 kts 210°
2026-05-06 17:08 58.89143 10.18787 36733 ft 417 kts 205°
2026-05-06 17:08 58.86424 10.16795 36954 ft 420 kts 205°
2026-05-06 17:08 58.83669 10.14840 37077 ft 423 kts 204°
2026-05-06 17:08 58.80898 10.12883 37300 ft 424 kts 204°
2026-05-06 17:09 58.78128 10.10913 37574 ft 424 kts 204°
2026-05-06 17:09 58.75356 10.08923 37777 ft 426 kts 204°
2026-05-06 17:09 58.72575 10.06911 37961 ft 428 kts 205°
2026-05-06 17:09 58.69785 10.04885 38186 ft 429 kts 205°
2026-05-06 17:10 58.66992 10.02852 38396 ft 430 kts 205°
2026-05-06 17:10 58.64190 10.00812 38568 ft 432 kts 204°
2026-05-06 17:10 58.61381 9.98769 38772 ft 431 kts 204°
2026-05-06 17:10 58.58581 9.96738 39011 ft 430 kts 204°
2026-05-06 17:11 58.55778 9.94707 39199 ft 430 kts 204°
2026-05-06 17:11 58.52978 9.92682 39421 ft 430 kts 204°
2026-05-06 17:11 58.50185 9.90665 39632 ft 429 kts 204°
2026-05-06 17:11 58.47394 9.88654 39863 ft 428 kts 204°
2026-05-06 17:12 58.44603 9.86646 39952 ft 431 kts 204°
2026-05-06 17:12 58.38945 9.82580 39967 ft 438 kts 204°
2026-05-06 17:13 58.33207 9.78475 39969 ft 442 kts 204°
2026-05-06 17:13 58.27436 9.74363 39965 ft 444 kts 204°
2026-05-06 17:14 58.21650 9.70256 39961 ft 444 kts 204°
2026-05-06 17:14 58.15870 9.66167 39963 ft 443 kts 204°
2026-05-06 17:15 58.10100 9.62095 39947 ft 442 kts 204°
2026-05-06 17:15 58.04368 9.57990 39958 ft 440 kts 204°
2026-05-06 17:16 57.98655 9.53879 39967 ft 439 kts 204°
2026-05-06 17:16 57.92957 9.49795 39970 ft 438 kts 204°
2026-05-06 17:17 57.87262 9.45733 39967 ft 437 kts 204°
2026-05-06 17:17 57.81569 9.41690 39958 ft 437 kts 204°
2026-05-06 17:18 57.75889 9.37670 39965 ft 436 kts 204°
2026-05-06 17:18 57.70208 9.33662 39968 ft 436 kts 204°
2026-05-06 17:19 57.64565 9.29695 39968 ft 436 kts 204°
2026-05-06 17:19 57.58884 9.25714 39971 ft 436 kts 204°
2026-05-06 17:20 57.53207 9.21750 39962 ft 436 kts 204°
2026-05-06 17:20 57.47530 9.17799 39971 ft 435 kts 204°
2026-05-06 17:21 57.41855 9.13862 39973 ft 435 kts 204°
2026-05-06 17:21 57.36175 9.09935 39968 ft 436 kts 204°
2026-05-06 17:22 57.30495 9.06021 39961 ft 436 kts 204°
2026-05-06 17:22 57.24814 9.02119 39975 ft 436 kts 204°
2026-05-06 17:23 57.19130 8.98227 39979 ft 436 kts 204°
2026-05-06 17:23 57.14405 8.95003 39975 ft 436 kts 203°
2026-05-06 17:24 57.08717 8.91131 39974 ft 436 kts 203°
2026-05-06 17:24 57.03025 8.87271 39969 ft 436 kts 203°
2026-05-06 17:25 56.97337 8.83426 39980 ft 436 kts 203°
2026-05-06 17:25 56.91640 8.79586 39975 ft 436 kts 203°
2026-05-06 17:26 56.85938 8.75757 39975 ft 437 kts 203°
2026-05-06 17:26 56.80230 8.71936 39950 ft 437 kts 203°
2026-05-06 17:27 56.74524 8.68128 39962 ft 437 kts 203°
2026-05-06 17:27 56.68814 8.64330 39966 ft 437 kts 203°
2026-05-06 17:28 56.63143 8.60570 39976 ft 437 kts 203°
2026-05-06 17:28 56.57426 8.56793 39975 ft 437 kts 203°
2026-05-06 17:29 56.51670 8.53001 39965 ft 437 kts 203°
2026-05-06 17:29 56.45997 8.49276 39972 ft 437 kts 203°
2026-05-06 17:30 56.40268 8.45526 39972 ft 437 kts 203°
2026-05-06 17:30 56.34545 8.41792 39975 ft 437 kts 202°
2026-05-06 17:31 56.28818 8.38068 39946 ft 438 kts 202°
2026-05-06 17:31 56.23092 8.34356 39954 ft 437 kts 202°
2026-05-06 17:32 56.17368 8.30657 39965 ft 437 kts 202°
2026-05-06 17:32 56.11638 8.26966 39959 ft 438 kts 202°
2026-05-06 17:33 56.05907 8.23286 39961 ft 438 kts 202°
2026-05-06 17:33 56.00170 8.19614 39946 ft 438 kts 202°
2026-05-06 17:34 55.94440 8.15958 39967 ft 437 kts 202°
2026-05-06 17:34 55.88708 8.12312 39967 ft 438 kts 202°
2026-05-06 17:35 55.82970 8.08674 39970 ft 438 kts 202°
2026-05-06 17:35 55.77232 8.05046 39970 ft 438 kts 202°
2026-05-06 17:36 55.68616 7.99622 39967 ft 438 kts 202°
2026-05-06 17:36 55.62871 7.96018 39962 ft 438 kts 202°
2026-05-06 17:37 55.57125 7.92426 39959 ft 438 kts 202°
2026-05-06 17:37 55.51377 7.88844 39942 ft 438 kts 202°
2026-05-06 17:38 55.45633 7.85274 39961 ft 438 kts 202°
2026-05-06 17:38 55.39880 7.81711 39964 ft 438 kts 202°
2026-05-06 17:39 55.34127 7.78158 39961 ft 438 kts 202°
2026-05-06 17:39 55.28372 7.74616 39962 ft 438 kts 202°
2026-05-06 17:40 55.22613 7.71081 39960 ft 439 kts 201°
2026-05-06 17:40 55.16848 7.67554 39963 ft 439 kts 201°
2026-05-06 17:41 55.11116 7.64058 39964 ft 440 kts 201°
2026-05-06 17:41 55.05338 7.60544 39960 ft 440 kts 201°
2026-05-06 17:42 54.99554 7.57037 39951 ft 440 kts 201°
2026-05-06 17:42 54.93767 7.53540 39956 ft 440 kts 201°
2026-05-06 17:43 54.87977 7.50051 39951 ft 440 kts 201°
2026-05-06 17:43 54.82183 7.46570 39951 ft 441 kts 201°
2026-05-06 17:44 54.76390 7.43101 39935 ft 441 kts 201°
2026-05-06 17:44 54.70592 7.39640 39946 ft 441 kts 201°
2026-05-06 17:45 54.64794 7.36188 39948 ft 441 kts 201°
2026-05-06 17:45 54.58993 7.32745 39946 ft 441 kts 201°
2026-05-06 17:46 54.53191 7.29312 39935 ft 441 kts 201°
2026-05-06 17:46 54.47382 7.25886 39945 ft 441 kts 201°
2026-05-06 17:47 54.41578 7.22472 39946 ft 441 kts 201°
2026-05-06 17:47 54.35769 7.19066 39945 ft 441 kts 201°
2026-05-06 17:48 54.29956 7.15667 39867 ft 443 kts 201°
2026-05-06 17:48 54.27030 7.13959 39599 ft 444 kts 201°
2026-05-06 17:48 54.24115 7.12262 39376 ft 442 kts 201°
2026-05-06 17:49 54.21213 7.10575 39145 ft 440 kts 201°
2026-05-06 17:49 54.18317 7.08894 38940 ft 439 kts 201°
2026-05-06 17:49 54.15422 7.07215 38718 ft 439 kts 201°
2026-05-06 17:49 54.12532 7.05542 38466 ft 438 kts 201°
2026-05-06 17:50 54.09645 7.03873 38191 ft 438 kts 201°
2026-05-06 17:50 54.06761 7.02207 37917 ft 437 kts 201°
2026-05-06 17:50 54.03880 7.00547 37630 ft 437 kts 201°
2026-05-06 17:50 54.01000 6.98889 37361 ft 437 kts 201°
2026-05-06 17:51 53.98125 6.97236 37098 ft 437 kts 201°
2026-05-06 17:51 53.95245 6.95583 36833 ft 437 kts 200°
2026-05-06 17:51 53.92368 6.93934 36577 ft 437 kts 200°
2026-05-06 17:51 53.89487 6.92286 36340 ft 437 kts 200°
2026-05-06 17:52 53.86610 6.90641 36077 ft 437 kts 200°
2026-05-06 17:52 53.83731 6.88998 35826 ft 437 kts 200°
2026-05-06 17:52 53.80851 6.87358 35582 ft 437 kts 200°
2026-05-06 17:52 53.77971 6.85719 35327 ft 437 kts 200°
2026-05-06 17:53 53.75094 6.84084 35083 ft 437 kts 200°
2026-05-06 17:53 53.72213 6.82450 34847 ft 437 kts 200°
2026-05-06 17:53 53.69333 6.80818 34611 ft 436 kts 200°
2026-05-06 17:53 53.66456 6.79191 34373 ft 436 kts 200°
2026-05-06 17:54 53.63575 6.77564 34133 ft 437 kts 200°
2026-05-06 17:54 53.60695 6.75940 33897 ft 436 kts 200°
2026-05-06 17:54 53.57819 6.74320 33629 ft 436 kts 200°
2026-05-06 17:54 53.54941 6.72702 33342 ft 436 kts 200°
2026-05-06 17:55 53.52059 6.71085 33063 ft 437 kts 200°
2026-05-06 17:55 53.49208 6.69486 32795 ft 438 kts 200°
2026-05-06 17:55 53.46273 6.67842 32524 ft 439 kts 200°
2026-05-06 17:55 53.43411 6.66240 32259 ft 440 kts 200°
2026-05-06 17:56 53.40501 6.64615 32005 ft 441 kts 200°
2026-05-06 17:56 53.37588 6.62990 31735 ft 442 kts 200°
2026-05-06 17:56 53.34667 6.61364 31472 ft 442 kts 200°
2026-05-06 17:56 53.31744 6.59739 31215 ft 443 kts 200°
2026-05-06 17:57 53.28829 6.58121 30961 ft 443 kts 200°
2026-05-06 17:57 53.25902 6.56498 30705 ft 444 kts 200°
2026-05-06 17:57 53.22971 6.54876 30456 ft 444 kts 200°
2026-05-06 17:57 53.20038 6.53254 30228 ft 444 kts 200°
2026-05-06 17:58 53.17103 6.51634 29973 ft 445 kts 200°
2026-05-06 17:58 53.14163 6.50013 29686 ft 445 kts 200°
2026-05-06 17:58 53.11222 6.48395 29404 ft 446 kts 200°
2026-05-06 17:58 53.08273 6.46773 29121 ft 447 kts 200°
2026-05-06 17:59 53.05317 6.45151 28828 ft 448 kts 200°
2026-05-06 17:59 53.02350 6.43524 28553 ft 450 kts 200°
2026-05-06 17:59 52.99367 6.41892 28279 ft 452 kts 200°
2026-05-06 17:59 52.96377 6.40258 28005 ft 453 kts 200°
2026-05-06 18:00 52.93376 6.38619 27732 ft 454 kts 200°